Location: Jackson Park
(37.2862°N, 79.9123°W)
Time: 22:20:55
(UTC+00:00)

Explorer 11/Cluster Stage 4 - Pass Details

Date: 15 May 2026
Orbit: 463 x 1173 km, 28.8° (Epoch: 5 June)

Event Time Altitude Azimuth Distance (km) Brightness Sun altitude
Rises 04:38:01 0° 248° (WSW) 3,787 - -33.1°
Reaches altitude 10° 04:41:09 10° 240° (WSW) 2,727 - -33.2°
Maximum altitude 04:47:01 35° 177° (S) 1,356 - -33.4°
Drops below altitude 10° 04:51:56 10° 113° (ESE) 2,269 - -33.6°
Sets 04:54:20 0° 104° (ESE) 3,077 - -33.6°
